Location: Orangeville
(43.9200°N, 80.0943°W)
Time: 07:30:59
(UTC-05:00)

Tiangong - Visible Passes

Search period start: 06 December 2021 00:00
Search period end: 16 December 2021 00:00
Orbit: 380 x 384 km, 41.5° (Epoch: 06 December)

Date Brightness Start Highest point End Pass type
(mag) Time Alt. Az. Time Alt. Az. Time Alt. Az.
08 Dec 3.0 18:36:50 10° SSW 18:38:46 20° S 18:38:46 20° S visible
09 Dec 3.5 17:37:13 10° S 17:38:59 14° SSE 17:40:45 10° ESE visible
09 Dec 3.8 19:12:18 10° WSW 19:13:19 18° SW 19:13:19 18° SW visible
10 Dec 2.3 18:12:00 10° SW 18:14:49 30° SSE 18:15:39 26° SE visible
11 Dec 2.2 18:47:44 10° WSW 18:50:06 40° SW 18:50:06 40° SW visible
12 Dec 2.0 17:47:16 10° WSW 17:50:15 40° SSE 17:52:22 17° ESE visible
12 Dec 4.2 19:23:44 10° W 19:24:31 16° WSW 19:24:31 16° WSW visible
13 Dec 1.5 18:23:08 10° WSW 18:26:14 54° S 18:26:45 46° SE visible
14 Dec 1.8 17:22:33 10° WSW 17:25:37 49° S 17:28:41 10° E visible
14 Dec 2.8 18:59:09 10° W 19:01:10 32° WSW 19:01:10 32° WSW visible
15 Dec 1.6 17:58:28 10° W 18:01:33 53° S 18:03:27 21° ESE visible
15 Dec 4.6 19:35:19 10° W 19:35:36 12° WSW 19:35:36 12° WSW visible
